Orbital Elements at Epoch 2459000.5 (2020-May-31.0) TDB
Reference: JPL 13 (heliocentric ecliptic J2000)
Element | Value | Uncertainty (1-sigma) | Units |
e | .05809518305794344 | 5.004e-08 | |
a | 2.777121318053804 | 2.7468e-08 | au |
q | 2.615783946707351 | 1.3633e-07 | au |
i | 4.996263774477021 | 4.6441e-06 | deg |
node | 112.6393737221722 | 8.3954e-05 | deg |
peri | 152.0232595975714 | 0.00010795 | deg |
M | 182.5778056747237 | 7.0371e-05 | deg |
tp | 2459833.598112821449 (2022-Sep-11.09811282) | 0.00033268 | TDB |
period | 1690.404753228749 4.63 | 2.5079e-05 6.866e-08 | d yr |
n | .2129667461667887 | 3.1596e-09 | deg/d |
Q | 2.938458689400258 | 2.9063e-08 | au |
|
| | Orbit Determination Parameters
Additional Information
|